Location: Callao
(39.8979°N, 113.7141°W)
Time: 17:22:26
(UTC+00:00)

AO-91 - Pass Details

Date: 14 May 2021
Orbit: 453 x 808 km, 97.7° (Epoch: 19 June)

Event Time Altitude Azimuth Distance (km) Brightness Sun altitude
Rises 08:05:42 0° 354° (N) 2,732 ? -30.8°
Reaches altitude 10° 08:08:12 10° 337° (NNW) 1,896 ? -30.8°
Enters shadow 08:09:53 17° 314° (NW) 1,527 ? -30.7°
